Vertical_Velocity
-3 1 3 -2 -2 0 -1 -4 -2 2 0 -2 0 -0 -1 -2 -2 -1 -9 2 -11 5 7 10 3 9 -1 1 6 4 3 -0 -2 1 -2 4 -2 -1 2 -5 -2 -3 -3 5 8
-2 1 -2 -0 -3 -1 1 -1 -2 -1 0 -3 -1 0 1 -2 -2 -3 -5 13 1 -31 10 7 5 7 5 -2 4 1 1 -4 -1 -0 -1 0 -4 -1 -1 2 1 3 -2 1 6
-2 -1 4 2 -3 -1 -1 -0 -1 -2 -1 -0 0 -0 -1 -1 -4 2 -3 -1 11 13 7 0 5 8 2 1 1 2 -3 -1 1 0 4 -1 -0 3 -2 0 2 -6 -2 -2 4
-1 2 1 -0 -3 -0 -1 -1 4 -1 4 -3 0 -1 -3 -1 3 -3 -2 -1 1 12 -23 5 8 5 2 -0 -2 -1 1 -2 2 -3 5 -0 -2 -0 -1 2 4 -3 3 -6 0
0 1 1 2 -1 1 -0 -2 -4 3 -3 -0 -0 -4 -3 2 -1 1 -3 -2 -4 5 -2 1 2 0 0 -2 1 1 -0 3 -7 5 2 -0 1 -0 4 1 -1 -1 5 0 -0
-2 2 -1 -2 -1 1 1 -4 -2 5 -1 -0 -0 -2 -3 2 0 -3 -1 3 -2 6 4 -2 6 6 -2 -2 -0 -2 -4 0 0 -5 4 -3 2 -4 7 1 0 -2 2 -2 -3
-2 4 1 2 -0 3 -0 -4 -2 0 -3 -0 1 -1 -2 -16 -1 7 3 -1 1 -0 -8 4 0 -1 3 2 0 4 -1 -2 3 2 -3 -3 -4 -1 3 6 -1 4 -1 1 -4
1 -0 -3 -2 -1 3 -1 -5 0 0 -1 -1 1 1 -9 1 -0 -0 -2 -3 -2 10 0 5 -14 -1 -1 12 5 1 -0 -0 3 -1 -1 -5 -5 -2 0 -0 1 0 5 2 -1
3 -1 -3 -2 1 -0 -3 -4 -1 1 -2 -0 -2 0 -3 2 -2 -2 -1 -1 2 1 -2 0 -1 -4 6 -1 0 1 -0 0 -3 -1 1 -1 -0 -7 2 0 -2 -1 1 3 3
5 1 -5 -1 3 -1 -2 -3 1 -1 -1 2 -3 8 -2 -2 -2 -1 3 -2 -1 4 2 -6 -5 2 1 1 -4 -2 -0 2 -2 1 1 -1 -3 -1 -1 2 -4 -2 -6 -3 7
2 1 -4 -1 0 -1 -6 -1 -2 -2 -0 -2 4 2 5 2 -5 0 8 3 1 7 -1 -1 -2 -1 -2 -1 -1 -2 -2 -2 1 2 2 -3 -1 -4 -2 5 1 -1 2 -1 -3
-1 1 -2 -3 3 -3 -3 -0 -1 1 -4 -1 -4 -5 2 3 3 3 -5 -1 1 0 0 2 -2 -2 1 0 -0 1 -2 2 3 2 6 1 -3 -2 -0 -3 -4 -4 -2 1 4
6 -4 -1 2 3 -4 -1 -4 1 -2 -0 3 -2 -1 0 3 1 -1 -1 1 -2 -1 0 -2 0 0 -0 -0 3 1 -3 0 -8 1 2 0 -3 -1 -5 2 1 1 1 3 -2
3 -3 -1 1 1 -0 -3 1 -3 -0 -5 -6 1 1 1 -5 0 -0 -2 1 4 -2 -0 0 2 -1 0 0 -2 1 -3 -2 -1 -1 -2 -5 -6 -0 -2 -2 1 -3 -0 -3 0
1 -2 -1 3 -1 0 -2 1 -3 -1 -8 -13 -5 -3 -2 5 -4 3 -12 -3 -2 -3 1 1 1 1 1 -7 -1 -8 -3 -4 -2 1 -3 1 -4 -12 -0 2 -2 -4 -3 -2 -0
1 1 -2 -1 -2 -2 -1 -4 1 -13 -14 -8 -2 -2 1 -1 1 -2 1 2 0 -5 -2 3 0 -0 4 0 -3 -1 -6 -4 -1 -0 -3 -3 -5 -7 -2 -6 0 1 -2 2 -0
2 -2 0 -2 0 3 0 -2 -3 -8 -7 -6 -2 0 -0 -1 -1 -2 -0 -2 -2 -5 -2 -1 -2 -2 1 -1 -2 -1 -4 -0 -3 -4 -3 -0 -2 -11 -1 1 -2 -1 4 4 -0
2 -2 -3 1 -3 2 -3 0 -7 -0 -2 -2 1 1 -1 -0 0 0 -1 -2 1 -3 -1 -1 -1 -1 -1 1 -4 0 -4 -5 -3 -2 -3 -2 -3 -13 -1 2 2 2 4 3 1
2 1 -9 1 0 0 -2 -1 -2 -2 -2 1 1 0 1 0 -4 -3 0 1 2 -1 -5 -1 1 -3 1 -0 -3 -3 -6 -5 -4 -1 -5 -3 -2 -4 0 1 1 1 -1 1 2
5 -1 -7 4 3 -3 -1 -0 -1 -1 -0 2 0 1 -0 0 -1 -1 -1 -1 -0 1 -1 2 -3 0 -2 -1 -2 -7 -5 -11 -5 -4 0 -1 -0 -3 1 2 2 0 -0 -1 -2
6 -4 -3 3 1 -0 -1 -0 0 -1 -0 -1 -0 -0 -1 -1 -1 1 0 2 0 -1 0 -2 -6 -1 -5 -2 2 -6 -2 -3 -6 -4 -4 -2 -6 -3 -2 -1 -0 0 0 -1 -1
1 -3 -2 4 -0 -0 -0 -2 -1 0 -1 -0 -0 0 -0 -0 -0 -1 -0 -1 1 -1 -0 1 -2 -0 1 -2 2 -0 -0 -0 -5 -4 -1 -4 -8 1 -0 -1 -2 -2 7 1 2
-4 -2 2 4 -2 1 2 0 -0 1 -1 1 -0 0 -0 -0 -5 -2 0 2 1 -1 1 -0 1 -1 -3 -9 -3 0 -1 0 -0 -2 -1 -5 -7 -0 1 2 6 3 1 2 3
-5 -1 4 0 2 -0 -1 0 1 3 -1 1 -2 2 1 -1 0 0 0 1 0 -1 1 -3 -1 -6 -7 -6 -4 1 1 0 -3 -2 -2 -3 0 -1 -1 0 0 -0 -0 -1 1
0 -3 -8 -0 -1 0 0 -3 0 1 -0 1 2 0 -0 -1 0 0 0 1 -1 0 -1 -4 -2 -1 1 1 -1 -1 -1 0 -1 -3 -6 -4 -1 2 0 -0 1 4 1 -2 -2
-7 -4 7 1 2 1 -1 -1 -2 2 -4 -0 0 1 -2 -2 -4 -0 -2 -1 -2 -0 -0 -0 -2 -1 -1 -0 -0 -0 -0 0 -0 0 1 1 -2 1 2 3 -2 1 0 -0 0
2 0 3 0 1 -3 -3 -0 1 -3 2 1 -2 -4 -2 -1 2 3 -2 -2 -2 -4 -0 -2 -2 -2 -1 -0 -1 -5 -3 -1 -0 -0 -4 0 1 0 -1 -1 1 2 1 1 -0
Height
1520 1518 1514 1512 1511 1508 1506 1503 1502 1500 1498 1496 1493 1490 1488 1487 1486 1484 1482 1480 1477 1476 1483 1485 1488 1491 1493 1493 1495 1499 1505 1507 1504 1504 1502 1501 1505 1508 1509 1510 1509 1513 1515 1518 1523
1518 1516 1512 1510 1508 1506 1503 1501 1499 1498 1496 1494 1492 1490 1487 1485 1485 1481 1479 1479 1478 1479 1482 1483 1484 1487 1491 1489 1492 1495 1496 1499 1497 1499 1496 1496 1500 1505 1509 1510 1514 1513 1516 1520 1525
1516 1514 1510 1508 1505 1504 1501 1500 1497 1495 1494 1492 1490 1488 1486 1485 1484 1480 1479 1477 1477 1477 1479 1481 1482 1486 1488 1486 1489 1490 1493 1494 1496 1498 1495 1497 1501 1504 1507 1511 1511 1513 1514 1518 1524
1513 1511 1507 1505 1502 1500 1497 1495 1495 1493 1492 1490 1489 1487 1485 1485 1485 1480 1478 1477 1477 1478 1477 1480 1481 1484 1485 1487 1487 1493 1494 1493 1497 1499 1497 1498 1501 1504 1506 1510 1512 1513 1512 1514 1521
1510 1508 1505 1502 1499 1497 1494 1492 1492 1490 1489 1488 1488 1486 1485 1485 1482 1480 1478 1476 1476 1476 1477 1479 1480 1482 1483 1484 1488 1490 1496 1495 1498 1500 1500 1499 1502 1506 1509 1511 1513 1515 1514 1512 1520
1508 1504 1500 1498 1496 1494 1491 1489 1489 1489 1487 1487 1486 1486 1485 1485 1481 1479 1478 1477 1476 1475 1475 1479 1480 1480 1482 1482 1486 1490 1494 1499 1496 1506 1503 1500 1503 1505 1511 1512 1514 1516 1516 1515 1520
1502 1501 1498 1495 1493 1491 1487 1486 1486 1486 1484 1485 1485 1484 1484 1482 1481 1480 1477 1476 1476 1476 1475 1478 1479 1480 1482 1482 1484 1489 1495 1499 1496 1503 1507 1505 1506 1507 1509 1512 1514 1517 1516 1517 1520
1498 1496 1494 1493 1489 1487 1483 1483 1483 1483 1483 1483 1483 1482 1481 1480 1479 1478 1478 1477 1476 1475 1476 1478 1482 1481 1481 1478 1484 1490 1496 1503 1501 1502 1505 1500 1507 1506 1509 1512 1515 1516 1518 1518 1520
1494 1490 1490 1489 1486 1482 1479 1480 1481 1481 1482 1482 1483 1483 1481 1479 1477 1475 1474 1476 1476 1475 1476 1477 1480 1483 1480 1479 1486 1490 1495 1502 1506 1506 1506 1505 1509 1504 1506 1511 1513 1514 1515 1516 1519
1490 1486 1487 1485 1484 1481 1478 1478 1479 1480 1481 1481 1482 1486 1479 1478 1475 1473 1472 1474 1475 1476 1477 1479 1481 1476 1476 1479 1483 1487 1500 1500 1505 1508 1509 1509 1510 1504 1505 1507 1508 1510 1512 1514 1514
1486 1484 1482 1482 1480 1477 1478 1479 1482 1482 1480 1480 1480 1479 1478 1477 1475 1473 1472 1472 1475 1477 1478 1481 1482 1480 1475 1475 1476 1482 1493 1498 1502 1503 1516 1514 1510 1505 1502 1503 1504 1505 1507 1511 1511
1482 1480 1479 1478 1476 1475 1478 1479 1480 1482 1480 1478 1478 1478 1476 1476 1473 1472 1472 1473 1474 1474 1479 1483 1479 1480 1477 1476 1476 1480 1488 1493 1495 1503 1509 1506 1506 1502 1501 1502 1501 1503 1504 1505 1508
1478 1477 1476 1475 1475 1475 1477 1478 1480 1480 1480 1478 1477 1476 1477 1476 1474 1472 1472 1471 1473 1475 1477 1475 1471 1481 1477 1479 1478 1484 1486 1486 1491 1498 1503 1503 1509 1504 1497 1499 1500 1501 1499 1500 1503
1475 1474 1473 1474 1477 1477 1478 1478 1480 1480 1485 1482 1477 1476 1475 1474 1474 1471 1470 1472 1473 1479 1477 1478 1478 1478 1479 1480 1479 1486 1484 1488 1492 1502 1506 1501 1518 1503 1495 1497 1497 1496 1496 1496 1498
1472 1471 1471 1472 1474 1477 1479 1478 1479 1480 1507 1482 1476 1475 1472 1473 1474 1470 1470 1471 1473 1474 1476 1481 1478 1479 1476 1476 1482 1482 1477 1485 1493 1495 1500 1499 1518 1501 1492 1498 1492 1490 1491 1494 1495
1470 1470 1469 1472 1474 1476 1476 1478 1480 1488 1514 1486 1476 1473 1472 1471 1472 1471 1469 1471 1470 1470 1476 1476 1479 1480 1480 1479 1479 1475 1485 1497 1498 1503 1516 1506 1516 1507 1497 1488 1485 1486 1487 1489 1491
1467 1468 1470 1472 1473 1474 1476 1478 1482 1502 1486 1483 1475 1472 1473 1474 1472 1470 1470 1470 1472 1478 1479 1484 1486 1480 1480 1478 1477 1481 1489 1511 1516 1523 1513 1500 1509 1500 1485 1480 1482 1486 1487 1488 1489
1466 1467 1469 1471 1471 1473 1475 1479 1492 1476 1484 1474 1471 1471 1473 1473 1476 1477 1477 1475 1469 1473 1481 1483 1490 1485 1481 1479 1481 1480 1485 1504 1505 1522 1515 1500 1510 1496 1483 1482 1483 1485 1486 1488 1488
1464 1466 1469 1470 1471 1473 1476 1473 1475 1476 1474 1471 1471 1471 1471 1472 1472 1477 1477 1474 1473 1472 1481 1482 1489 1487 1485 1482 1481 1483 1501 1488 1502 1503 1525 1509 1497 1491 1486 1488 1488 1488 1487 1488 1489
1462 1464 1470 1470 1471 1473 1475 1470 1472 1472 1473 1471 1472 1469 1470 1471 1473 1472 1479 1476 1476 1475 1475 1482 1491 1492 1487 1484 1483 1484 1487 1502 1516 1519 1508 1507 1496 1497 1494 1494 1489 1489 1490 1491 1492
1460 1463 1469 1470 1471 1473 1472 1469 1469 1471 1472 1472 1472 1470 1468 1467 1470 1471 1481 1479 1476 1475 1475 1476 1486 1497 1490 1494 1493 1492 1493 1492 1498 1508 1514 1511 1507 1488 1490 1487 1489 1491 1493 1494 1495
1456 1462 1467 1469 1471 1468 1469 1466 1467 1471 1471 1471 1471 1470 1469 1465 1469 1473 1478 1476 1475 1476 1477 1477 1487 1494 1497 1494 1493 1493 1491 1491 1510 1506 1508 1516 1509 1488 1485 1486 1488 1491 1495 1496 1496
1453 1460 1465 1467 1469 1464 1462 1464 1466 1469 1469 1470 1470 1470 1468 1469 1474 1471 1475 1476 1476 1477 1480 1480 1490 1501 1505 1500 1493 1494 1491 1490 1495 1500 1509 1518 1507 1490 1487 1489 1492 1495 1496 1498 1498
1450 1459 1463 1465 1463 1462 1461 1465 1466 1466 1467 1467 1468 1469 1466 1470 1471 1475 1479 1478 1478 1480 1480 1479 1487 1496 1502 1491 1491 1496 1491 1492 1499 1516 1502 1504 1496 1494 1497 1496 1497 1498 1498 1498 1498
1444 1449 1450 1457 1459 1457 1456 1459 1464 1465 1465 1467 1468 1470 1469 1474 1473 1478 1480 1481 1481 1481 1481 1482 1493 1495 1488 1486 1487 1487 1490 1492 1499 1497 1504 1497 1497 1501 1500 1501 1500 1499 1497 1496 1495
1439 1441 1447 1447 1449 1453 1455 1456 1460 1462 1465 1466 1466 1468 1468 1475 1475 1478 1479 1478 1479 1483 1483 1484 1500 1493 1504 1489 1490 1491 1490 1489 1491 1493 1494 1495 1496 1497 1498 1498 1497 1496 1494 1493 1492
1434 1437 1440 1445 1448 1452 1455 1454 1457 1460 1466 1466 1466 1470 1474 1475 1473 1474 1476 1478 1479 1482 1484 1486 1497 1508 1510 1496 1497 1504 1494 1490 1487 1486 1489 1495 1498 1498 1497 1496 1495 1494 1493 1493 1491